Year,Month,Day,Hour,Minute,Value (Times are PST for temperature in C)
2017,08,08,00,00,20.80
2017,08,08,00,01,20.70
2017,08,08,00,02,20.70
2017,08,08,00,03,20.70
2017,08,08,00,04,20.60
2017,08,08,00,05,20.60
2017,08,08,00,06,20.60
2017,08,08,00,07,20.60
2017,08,08,00,08,20.60
2017,08,08,00,09,20.60
2017,08,08,00,10,20.50
2017,08,08,00,11,20.50
2017,08,08,00,12,20.50
2017,08,08,00,13,20.40
2017,08,08,00,14,20.40
2017,08,08,00,15,20.40
2017,08,08,00,16,20.40
2017,08,08,00,17,20.40
2017,08,08,00,18,20.40
2017,08,08,00,19,20.30
2017,08,08,00,20,20.30
2017,08,08,00,21,20.30
2017,08,08,00,22,20.30
2017,08,08,00,23,20.30
2017,08,08,00,24,20.30
2017,08,08,00,25,20.30
2017,08,08,00,26,20.30
2017,08,08,00,27,20.30
2017,08,08,00,28,20.30
2017,08,08,00,29,20.30
2017,08,08,00,30,20.30
2017,08,08,00,31,20.20
2017,08,08,00,32,20.20
2017,08,08,00,33,20.20
2017,08,08,00,34,20.20
2017,08,08,00,35,20.20
2017,08,08,00,36,20.20
2017,08,08,00,37,20.20
2017,08,08,00,38,20.10
2017,08,08,00,39,20.10
2017,08,08,00,40,20.10
2017,08,08,00,41,20.10
2017,08,08,00,42,20.00
2017,08,08,00,43,20.00
2017,08,08,00,44,20.00
2017,08,08,00,45,19.90
2017,08,08,00,46,19.90
2017,08,08,00,47,19.90
2017,08,08,00,48,19.90
2017,08,08,00,49,19.90
2017,08,08,00,50,19.80
2017,08,08,00,51,19.80
2017,08,08,00,52,19.80
2017,08,08,00,53,19.80
2017,08,08,00,54,19.80
2017,08,08,00,55,19.70
2017,08,08,00,56,19.70
2017,08,08,00,57,19.70
2017,08,08,00,58,19.70
2017,08,08,00,59,19.70
2017,08,08,01,00,19.70
2017,08,08,01,01,19.60
2017,08,08,01,02,19.60
2017,08,08,01,03,19.60
2017,08,08,01,04,19.60
2017,08,08,01,05,19.60
2017,08,08,01,06,19.50
2017,08,08,01,07,19.50
2017,08,08,01,08,19.50
2017,08,08,01,09,19.40
2017,08,08,01,10,19.40
2017,08,08,01,11,19.40
2017,08,08,01,12,19.40
2017,08,08,01,13,19.30
2017,08,08,01,14,19.30
2017,08,08,01,15,19.30
2017,08,08,01,16,19.30
2017,08,08,01,17,19.30
2017,08,08,01,18,19.20
2017,08,08,01,19,19.20
2017,08,08,01,20,19.20
2017,08,08,01,21,19.20
2017,08,08,01,22,19.20
2017,08,08,01,23,19.20
2017,08,08,01,24,19.10
2017,08,08,01,25,19.10
2017,08,08,01,26,19.10
2017,08,08,01,27,19.10
2017,08,08,01,28,19.10
2017,08,08,01,29,19.10
2017,08,08,01,30,19.10
2017,08,08,01,31,19.10
2017,08,08,01,32,19.10
2017,08,08,01,33,19.10
2017,08,08,01,34,19.00
2017,08,08,01,35,19.00
2017,08,08,01,36,19.00
2017,08,08,01,37,18.90
2017,08,08,01,38,18.90
2017,08,08,01,39,18.90
2017,08,08,01,40,18.90
2017,08,08,01,41,18.90
2017,08,08,01,42,18.90
2017,08,08,01,43,18.80
2017,08,08,01,44,18.80
2017,08,08,01,45,18.80
2017,08,08,01,46,18.80
2017,08,08,01,47,18.80
2017,08,08,01,48,18.80
2017,08,08,01,49,18.70
2017,08,08,01,50,18.70
2017,08,08,01,51,18.70
2017,08,08,01,52,18.70
2017,08,08,01,53,18.70
2017,08,08,01,54,18.70
2017,08,08,01,55,18.70
2017,08,08,01,56,18.70
2017,08,08,01,57,18.70
2017,08,08,01,58,18.70
2017,08,08,01,59,18.60
2017,08,08,02,00,18.60
2017,08,08,02,01,18.60
2017,08,08,02,02,18.60
2017,08,08,02,03,18.60
2017,08,08,02,04,18.60
2017,08,08,02,05,18.60
2017,08,08,02,06,18.60
2017,08,08,02,07,18.60
2017,08,08,02,08,18.60
2017,08,08,02,09,18.60
2017,08,08,02,10,18.60
2017,08,08,02,11,18.60
2017,08,08,02,12,18.60
2017,08,08,02,13,18.50
2017,08,08,02,14,18.50
2017,08,08,02,15,18.40
2017,08,08,02,16,18.40
2017,08,08,02,17,18.40
2017,08,08,02,18,18.40
2017,08,08,02,19,18.40
2017,08,08,02,20,18.40
2017,08,08,02,21,18.30
2017,08,08,02,22,18.30
2017,08,08,02,23,18.30
2017,08,08,02,24,18.30
2017,08,08,02,25,18.30
2017,08,08,02,26,18.30
2017,08,08,02,27,18.30
2017,08,08,02,28,18.30
2017,08,08,02,29,18.30
2017,08,08,02,30,18.30
2017,08,08,02,31,18.30
2017,08,08,02,32,18.40
2017,08,08,02,33,18.40
2017,08,08,02,34,18.40
2017,08,08,02,35,18.50
2017,08,08,02,36,18.50
2017,08,08,02,37,18.60
2017,08,08,02,38,18.60
2017,08,08,02,39,18.70
2017,08,08,02,40,18.70
2017,08,08,02,41,18.70
2017,08,08,02,42,18.70
2017,08,08,02,43,18.70
2017,08,08,02,44,18.80
2017,08,08,02,45,18.80
2017,08,08,02,46,18.80
2017,08,08,02,47,18.80
2017,08,08,02,48,18.80
2017,08,08,02,49,18.80
2017,08,08,02,50,18.80
2017,08,08,02,51,18.70
2017,08,08,02,52,18.70
2017,08,08,02,53,18.70
2017,08,08,02,54,18.60
2017,08,08,02,55,18.60
2017,08,08,02,56,18.50
2017,08,08,02,57,18.50
2017,08,08,02,58,18.40
2017,08,08,02,59,18.40
2017,08,08,03,00,18.30
2017,08,08,03,01,18.30
2017,08,08,03,02,18.30
2017,08,08,03,03,18.30
2017,08,08,03,04,18.20
2017,08,08,03,05,18.20
2017,08,08,03,06,18.20
2017,08,08,03,07,18.20
2017,08,08,03,08,18.20
2017,08,08,03,09,18.20
2017,08,08,03,10,18.20
2017,08,08,03,11,18.20
2017,08,08,03,12,18.10
2017,08,08,03,13,18.10
2017,08,08,03,14,18.10
2017,08,08,03,15,18.10
2017,08,08,03,16,18.10
2017,08,08,03,17,18.10
2017,08,08,03,18,18.10
2017,08,08,03,19,18.10
2017,08,08,03,20,18.10
2017,08,08,03,21,18.10
2017,08,08,03,22,18.10
2017,08,08,03,23,18.00
2017,08,08,03,24,18.00
2017,08,08,03,25,18.00
2017,08,08,03,26,17.90
2017,08,08,03,27,17.90
2017,08,08,03,28,17.90
2017,08,08,03,29,17.90
2017,08,08,03,30,17.90
2017,08,08,03,31,17.80
2017,08,08,03,32,17.80
2017,08,08,03,33,17.80
2017,08,08,03,34,17.80
2017,08,08,03,35,17.80
2017,08,08,03,36,17.70
2017,08,08,03,37,17.70
2017,08,08,03,38,17.70
2017,08,08,03,39,17.60
2017,08,08,03,40,17.60
2017,08,08,03,41,17.60
2017,08,08,03,42,17.60
2017,08,08,03,43,17.50
2017,08,08,03,44,17.50
2017,08,08,03,45,17.50
2017,08,08,03,46,17.50
2017,08,08,03,47,17.50
2017,08,08,03,48,17.50
2017,08,08,03,49,17.50
2017,08,08,03,50,17.50
2017,08,08,03,51,17.50
2017,08,08,03,52,17.50
2017,08,08,03,53,17.50
2017,08,08,03,54,17.40
2017,08,08,03,55,17.40
2017,08,08,03,56,17.40
2017,08,08,03,57,17.40
2017,08,08,03,58,17.40
2017,08,08,03,59,17.40
2017,08,08,04,00,17.40
2017,08,08,04,01,17.40
2017,08,08,04,02,17.40
2017,08,08,04,03,17.40
2017,08,08,04,04,17.30
2017,08,08,04,05,17.30
2017,08,08,04,06,17.30
2017,08,08,04,07,17.30
2017,08,08,04,08,17.30
2017,08,08,04,09,17.30
2017,08,08,04,10,17.30
2017,08,08,04,11,17.20
2017,08,08,04,12,17.20
2017,08,08,04,13,17.20
2017,08,08,04,14,17.20
2017,08,08,04,15,17.20
2017,08,08,04,16,17.10
2017,08,08,04,17,17.10
2017,08,08,04,18,17.10
2017,08,08,04,19,17.10
2017,08,08,04,20,17.10
2017,08,08,04,21,17.10
2017,08,08,04,22,17.00
2017,08,08,04,23,17.00
2017,08,08,04,24,17.00
2017,08,08,04,25,17.00
2017,08,08,04,26,17.00
2017,08,08,04,27,17.00
2017,08,08,04,28,17.00
2017,08,08,04,29,17.00
2017,08,08,04,30,17.00
2017,08,08,04,31,17.00
2017,08,08,04,32,17.00
2017,08,08,04,33,17.00
2017,08,08,04,34,17.00
2017,08,08,04,35,16.90
2017,08,08,04,36,16.90
2017,08,08,04,37,16.90
2017,08,08,04,38,16.90
2017,08,08,04,39,16.90
2017,08,08,04,40,16.80
2017,08,08,04,41,16.80
2017,08,08,04,42,16.80
2017,08,08,04,43,16.80
2017,08,08,04,44,16.80
2017,08,08,04,45,16.80
2017,08,08,04,46,16.70
2017,08,08,04,47,16.70
2017,08,08,04,48,16.70
2017,08,08,04,49,16.70
2017,08,08,04,50,16.70
2017,08,08,04,51,16.70
2017,08,08,04,52,16.70
2017,08,08,04,53,16.60
2017,08,08,04,54,16.60
2017,08,08,04,55,16.60
2017,08,08,04,56,16.60
2017,08,08,04,57,16.60
2017,08,08,04,58,16.60
2017,08,08,04,59,16.60
2017,08,08,05,00,16.50
2017,08,08,05,01,16.50
2017,08,08,05,02,16.40
2017,08,08,05,03,16.40
2017,08,08,05,04,16.40
2017,08,08,05,05,16.40
2017,08,08,05,06,16.40
2017,08,08,05,07,16.30
2017,08,08,05,08,16.30
2017,08,08,05,09,16.30
2017,08,08,05,10,16.30
2017,08,08,05,11,16.30
2017,08,08,05,12,16.30
2017,08,08,05,13,16.30
2017,08,08,05,14,16.30
2017,08,08,05,15,16.30
2017,08,08,05,16,16.30
2017,08,08,05,17,16.30
2017,08,08,05,18,16.30
2017,08,08,05,19,16.30
2017,08,08,05,20,16.30
2017,08,08,05,21,16.30
2017,08,08,05,22,16.30
2017,08,08,05,23,16.30
2017,08,08,05,24,16.30
2017,08,08,05,25,16.30
2017,08,08,05,26,16.30
2017,08,08,05,27,16.30
2017,08,08,05,28,16.30
2017,08,08,05,29,16.30
2017,08,08,05,30,16.20
2017,08,08,05,31,16.20
2017,08,08,05,32,16.20
2017,08,08,05,33,16.20
2017,08,08,05,34,16.20
2017,08,08,05,35,16.20
2017,08,08,05,36,16.20
2017,08,08,05,37,16.20
2017,08,08,05,38,16.10
2017,08,08,05,39,16.10
2017,08,08,05,40,16.10
2017,08,08,05,41,16.10
2017,08,08,05,42,16.10
2017,08,08,05,43,16.10
2017,08,08,05,44,16.10
2017,08,08,05,45,16.10
2017,08,08,05,46,16.10
2017,08,08,05,47,16.10
2017,08,08,05,48,16.00
2017,08,08,05,49,16.00
2017,08,08,05,50,16.00
2017,08,08,05,51,16.00
2017,08,08,05,52,16.00
2017,08,08,05,53,16.00
2017,08,08,05,54,15.90
2017,08,08,05,55,15.90
2017,08,08,05,56,15.90
2017,08,08,05,57,15.90
2017,08,08,05,58,15.90
2017,08,08,05,59,15.90
2017,08,08,06,00,15.90
2017,08,08,06,01,15.90
2017,08,08,06,02,15.90
2017,08,08,06,03,15.90
2017,08,08,06,04,15.90
2017,08,08,06,05,15.90
2017,08,08,06,06,15.90
2017,08,08,06,07,15.90
2017,08,08,06,08,15.90
2017,08,08,06,09,15.90
2017,08,08,06,10,15.90
2017,08,08,06,11,15.90
2017,08,08,06,12,15.90
2017,08,08,06,13,15.90
2017,08,08,06,14,15.90
2017,08,08,06,15,15.90
2017,08,08,06,16,15.90
2017,08,08,06,17,15.90
2017,08,08,06,18,15.90
2017,08,08,06,19,15.90
2017,08,08,06,20,15.90
2017,08,08,06,21,15.90
2017,08,08,06,22,15.90
2017,08,08,06,23,15.90
2017,08,08,06,24,15.90
2017,08,08,06,25,15.90
2017,08,08,06,26,15.90
2017,08,08,06,27,15.90
2017,08,08,06,28,15.90
2017,08,08,06,29,15.90
2017,08,08,06,30,15.90
2017,08,08,06,31,15.90
2017,08,08,06,32,15.90
2017,08,08,06,33,15.90
2017,08,08,06,34,15.90
2017,08,08,06,35,15.90
2017,08,08,06,36,15.90
2017,08,08,06,37,15.90
2017,08,08,06,38,15.90
2017,08,08,06,39,15.90
2017,08,08,06,40,15.90
2017,08,08,06,41,15.90
2017,08,08,06,42,15.90
2017,08,08,06,43,15.90
2017,08,08,06,44,15.90
2017,08,08,06,45,15.90
2017,08,08,06,46,15.90
2017,08,08,06,47,15.90
2017,08,08,06,48,16.00
2017,08,08,06,49,16.00
2017,08,08,06,50,16.00
2017,08,08,06,51,16.00
2017,08,08,06,52,16.00
2017,08,08,06,53,15.90
2017,08,08,06,54,15.90
2017,08,08,06,55,16.00
2017,08,08,06,56,16.00
2017,08,08,06,57,15.90
2017,08,08,06,58,16.00
2017,08,08,06,59,15.90
2017,08,08,07,00,15.90
2017,08,08,07,01,15.90
2017,08,08,07,02,15.90
2017,08,08,07,03,15.90
2017,08,08,07,04,15.90
2017,08,08,07,05,15.90
2017,08,08,07,06,15.90
2017,08,08,07,07,15.90
2017,08,08,07,08,15.90
2017,08,08,07,09,15.90
2017,08,08,07,10,15.90
2017,08,08,07,11,16.00
2017,08,08,07,12,16.00
2017,08,08,07,13,16.00
2017,08,08,07,14,16.00
2017,08,08,07,15,16.00
2017,08,08,07,16,16.00
2017,08,08,07,17,16.10
2017,08,08,07,18,16.10
2017,08,08,07,19,16.10
2017,08,08,07,20,16.10
2017,08,08,07,21,16.10
2017,08,08,07,22,16.10
2017,08,08,07,23,16.10
2017,08,08,07,24,16.10
2017,08,08,07,25,16.10
2017,08,08,07,26,16.10
2017,08,08,07,27,16.10
2017,08,08,07,28,16.10
2017,08,08,07,29,16.10
2017,08,08,07,30,16.10
2017,08,08,07,31,16.20
2017,08,08,07,32,16.20
2017,08,08,07,33,16.20
2017,08,08,07,34,16.20
2017,08,08,07,35,16.20
2017,08,08,07,36,16.20
2017,08,08,07,37,16.20
2017,08,08,07,38,16.20
2017,08,08,07,39,16.20
2017,08,08,07,40,16.20
2017,08,08,07,41,16.20
2017,08,08,07,42,16.30
2017,08,08,07,43,16.30
2017,08,08,07,44,16.30
2017,08,08,07,45,16.30
2017,08,08,07,46,16.30
2017,08,08,07,47,16.30
2017,08,08,07,48,16.30
2017,08,08,07,49,16.30
2017,08,08,07,50,16.30
2017,08,08,07,51,16.40
2017,08,08,07,52,16.40
2017,08,08,07,53,16.40
2017,08,08,07,54,16.40
2017,08,08,07,55,16.40
2017,08,08,07,56,16.50
2017,08,08,07,57,16.50
2017,08,08,07,58,16.60
2017,08,08,07,59,16.60
2017,08,08,08,00,16.70
2017,08,08,08,01,16.70
2017,08,08,08,02,16.70
2017,08,08,08,03,16.80
2017,08,08,08,04,16.80
2017,08,08,08,05,16.80
2017,08,08,08,06,16.90
2017,08,08,08,07,16.90
2017,08,08,08,08,16.90
2017,08,08,08,09,16.90
2017,08,08,08,10,17.00
2017,08,08,08,11,17.00
2017,08,08,08,12,17.00
2017,08,08,08,13,17.10
2017,08,08,08,14,17.10
2017,08,08,08,15,17.10
2017,08,08,08,16,17.10
2017,08,08,08,17,17.20
2017,08,08,08,18,17.20
2017,08,08,08,19,17.20
2017,08,08,08,20,17.30
2017,08,08,08,21,17.30
2017,08,08,08,22,17.30
2017,08,08,08,23,17.30
2017,08,08,08,24,17.40
2017,08,08,08,25,17.40
2017,08,08,08,26,17.40
2017,08,08,08,27,17.40
2017,08,08,08,28,17.40
2017,08,08,08,29,17.50
2017,08,08,08,30,17.50
2017,08,08,08,31,17.60
2017,08,08,08,32,17.60
2017,08,08,08,33,17.60
2017,08,08,08,34,17.60
2017,08,08,08,35,17.70
2017,08,08,08,36,17.70
2017,08,08,08,37,17.70
2017,08,08,08,38,17.70
2017,08,08,08,39,17.80
2017,08,08,08,40,17.80
2017,08,08,08,41,17.80
2017,08,08,08,42,17.80
2017,08,08,08,43,17.90
2017,08,08,08,44,17.90
2017,08,08,08,45,17.90
2017,08,08,08,46,18.00
2017,08,08,08,47,18.00
2017,08,08,08,48,18.10
2017,08,08,08,49,18.10
2017,08,08,08,50,18.10
2017,08,08,08,51,18.20
2017,08,08,08,52,18.20
2017,08,08,08,53,18.20
2017,08,08,08,54,18.20
2017,08,08,08,55,18.20
2017,08,08,08,56,18.20
2017,08,08,08,57,18.20
2017,08,08,08,58,18.20
2017,08,08,08,59,18.20
2017,08,08,09,00,18.30
2017,08,08,09,01,18.30
2017,08,08,09,02,18.30
2017,08,08,09,03,18.30
2017,08,08,09,04,18.40
2017,08,08,09,05,18.40
2017,08,08,09,06,18.40
2017,08,08,09,07,18.40
2017,08,08,09,08,18.40
2017,08,08,09,09,18.40
2017,08,08,09,10,18.40
2017,08,08,09,11,18.40
2017,08,08,09,12,18.40
2017,08,08,09,13,18.40
2017,08,08,09,14,18.40
2017,08,08,09,15,18.50
2017,08,08,09,16,18.50
2017,08,08,09,17,18.60
2017,08,08,09,18,18.60
2017,08,08,09,19,18.60
2017,08,08,09,20,18.70
2017,08,08,09,21,18.70
2017,08,08,09,22,18.70
2017,08,08,09,23,18.70
2017,08,08,09,24,18.80
2017,08,08,09,25,18.80
2017,08,08,09,26,18.80
2017,08,08,09,27,18.90
2017,08,08,09,28,18.90
2017,08,08,09,29,18.90
2017,08,08,09,30,19.00
2017,08,08,09,31,19.10
2017,08,08,09,32,19.10
2017,08,08,09,33,19.10
2017,08,08,09,34,19.10
2017,08,08,09,35,19.10
2017,08,08,09,36,19.10
2017,08,08,09,37,19.10
2017,08,08,09,38,19.10
2017,08,08,09,39,19.10
2017,08,08,09,40,19.10
2017,08,08,09,41,19.10
2017,08,08,09,42,19.20
2017,08,08,09,43,19.20
2017,08,08,09,44,19.20
2017,08,08,09,45,19.20
2017,08,08,09,46,19.30
2017,08,08,09,47,19.30
2017,08,08,09,48,19.30
2017,08,08,09,49,19.20
2017,08,08,09,50,19.20
2017,08,08,09,51,19.20
2017,08,08,09,52,19.20
2017,08,08,09,53,19.20
2017,08,08,09,54,19.20
2017,08,08,09,55,19.20
2017,08,08,09,56,19.30
2017,08,08,09,57,19.30
2017,08,08,09,58,19.30
2017,08,08,09,59,19.30
2017,08,08,10,00,19.30
2017,08,08,10,01,19.30
2017,08,08,10,02,19.30
2017,08,08,10,03,19.20
2017,08,08,10,04,19.20
2017,08,08,10,05,19.30
2017,08,08,10,06,19.20
2017,08,08,10,07,19.20
2017,08,08,10,08,19.20
2017,08,08,10,09,19.10
2017,08,08,10,10,19.10
2017,08,08,10,11,19.10
2017,08,08,10,12,19.00
2017,08,08,10,13,18.90
2017,08,08,10,14,18.90
2017,08,08,10,15,18.90
2017,08,08,10,16,18.90
2017,08,08,10,17,18.90
2017,08,08,10,18,19.00
2017,08,08,10,19,19.00
2017,08,08,10,20,19.10
2017,08,08,10,21,19.10
2017,08,08,10,22,19.20
2017,08,08,10,23,19.20
2017,08,08,10,24,19.20
2017,08,08,10,25,19.30
2017,08,08,10,26,19.20
2017,08,08,10,27,19.20
2017,08,08,10,28,19.30
2017,08,08,10,29,19.20
2017,08,08,10,30,19.20
2017,08,08,10,31,19.20
2017,08,08,10,32,19.10
2017,08,08,10,33,19.10
2017,08,08,10,34,19.10
2017,08,08,10,35,19.10
2017,08,08,10,36,19.10
2017,08,08,10,37,19.10
2017,08,08,10,38,19.10
2017,08,08,10,39,19.10
2017,08,08,10,40,19.10
2017,08,08,10,41,19.10
2017,08,08,10,42,19.10
2017,08,08,10,43,19.20
2017,08,08,10,44,19.20
2017,08,08,10,45,19.20
2017,08,08,10,46,19.20
2017,08,08,10,47,19.20
2017,08,08,10,48,19.20
2017,08,08,10,49,19.30
2017,08,08,10,50,19.40
2017,08,08,10,51,19.40
2017,08,08,10,52,19.40
2017,08,08,10,53,19.50
2017,08,08,10,54,19.60
2017,08,08,10,55,19.60
2017,08,08,10,56,19.60
2017,08,08,10,57,19.70
2017,08,08,10,58,19.70
2017,08,08,10,59,19.70
2017,08,08,11,00,19.80
2017,08,08,11,01,19.70
2017,08,08,11,02,19.70
2017,08,08,11,03,19.70
2017,08,08,11,04,19.70
2017,08,08,11,05,19.80
2017,08,08,11,06,19.80
2017,08,08,11,07,19.90
2017,08,08,11,08,19.90
2017,08,08,11,09,19.90
2017,08,08,11,10,19.90
2017,08,08,11,11,19.90
2017,08,08,11,12,19.90
2017,08,08,11,13,19.90
2017,08,08,11,14,20.00
2017,08,08,11,15,20.00
2017,08,08,11,16,20.10
2017,08,08,11,17,20.20
2017,08,08,11,18,20.20
2017,08,08,11,19,20.30
2017,08,08,11,20,20.30
2017,08,08,11,21,20.30
2017,08,08,11,22,20.20
2017,08,08,11,23,20.20
2017,08,08,11,24,20.10
2017,08,08,11,25,20.10
2017,08,08,11,26,20.10
2017,08,08,11,27,20.10
2017,08,08,11,28,20.10
2017,08,08,11,29,20.10
2017,08,08,11,30,20.10
2017,08,08,11,31,20.20
2017,08,08,11,32,20.20
2017,08,08,11,33,20.20
2017,08,08,11,34,20.20
2017,08,08,11,35,20.20
2017,08,08,11,36,20.20
2017,08,08,11,37,20.10
2017,08,08,11,38,20.10
2017,08,08,11,39,20.20
2017,08,08,11,40,20.20
2017,08,08,11,41,20.20
2017,08,08,11,42,20.30
2017,08,08,11,43,20.30
2017,08,08,11,44,20.40
2017,08,08,11,45,20.40
2017,08,08,11,46,20.40
2017,08,08,11,47,20.40
2017,08,08,11,48,20.40
2017,08,08,11,49,20.40
2017,08,08,11,50,20.40
2017,08,08,11,51,20.50
2017,08,08,11,52,20.50
2017,08,08,11,53,20.50
2017,08,08,11,54,20.50
2017,08,08,11,55,20.50
2017,08,08,11,56,20.50
2017,08,08,11,57,20.60
2017,08,08,11,58,20.70
2017,08,08,11,59,20.80
2017,08,08,12,00,20.90
2017,08,08,12,01,21.00
2017,08,08,12,02,21.00
2017,08,08,12,03,21.00
2017,08,08,12,04,21.00
2017,08,08,12,05,21.00
2017,08,08,12,06,21.10
2017,08,08,12,07,21.20
2017,08,08,12,08,21.20
2017,08,08,12,09,21.20
2017,08,08,12,10,21.20
2017,08,08,12,11,21.20
2017,08,08,12,12,21.20
2017,08,08,12,13,21.30
2017,08,08,12,14,21.30
2017,08,08,12,15,21.30
2017,08,08,12,16,21.30
2017,08,08,12,17,21.30
2017,08,08,12,18,21.40
2017,08,08,12,19,21.40
2017,08,08,12,20,21.60
2017,08,08,12,21,21.70
2017,08,08,12,22,21.70
2017,08,08,12,23,21.70
2017,08,08,12,24,21.80
2017,08,08,12,25,21.80
2017,08,08,12,26,21.90
2017,08,08,12,27,21.90
2017,08,08,12,28,22.00
2017,08,08,12,29,22.00
2017,08,08,12,30,22.00
2017,08,08,12,31,22.00
2017,08,08,12,32,22.10
2017,08,08,12,33,22.10
2017,08,08,12,34,22.20
2017,08,08,12,35,22.30
2017,08,08,12,36,22.40
2017,08,08,12,37,22.50
2017,08,08,12,38,22.50
2017,08,08,12,39,22.50
2017,08,08,12,40,22.50
2017,08,08,12,41,22.40
2017,08,08,12,42,22.50
2017,08,08,12,43,22.50
2017,08,08,12,44,22.50
2017,08,08,12,45,22.50
2017,08,08,12,46,22.50
2017,08,08,12,47,22.50
2017,08,08,12,48,22.50
2017,08,08,12,49,22.50
2017,08,08,12,50,22.60
2017,08,08,12,51,22.60
2017,08,08,12,52,22.60
2017,08,08,12,53,22.80
2017,08,08,12,54,22.80
2017,08,08,12,55,22.90
2017,08,08,12,56,22.90
2017,08,08,12,57,22.80
2017,08,08,12,58,22.80
2017,08,08,12,59,22.80
2017,08,08,13,00,22.80
2017,08,08,13,01,22.90
2017,08,08,13,02,22.80
2017,08,08,13,03,22.90
2017,08,08,13,04,23.00
2017,08,08,13,05,23.00
2017,08,08,13,06,23.10
2017,08,08,13,07,23.20
2017,08,08,13,08,23.20
2017,08,08,13,09,23.20
2017,08,08,13,10,23.30
2017,08,08,13,11,23.40
2017,08,08,13,12,23.40
2017,08,08,13,13,23.40
2017,08,08,13,14,23.30
2017,08,08,13,15,23.30
2017,08,08,13,16,23.30
2017,08,08,13,17,23.30
2017,08,08,13,18,23.30
2017,08,08,13,19,23.30
2017,08,08,13,20,23.40
2017,08,08,13,21,23.40
2017,08,08,13,22,23.40
2017,08,08,13,23,23.40
2017,08,08,13,24,23.50
2017,08,08,13,25,23.60
2017,08,08,13,26,23.50
2017,08,08,13,27,23.50
2017,08,08,13,28,23.60
2017,08,08,13,29,23.60
2017,08,08,13,30,23.60
2017,08,08,13,31,23.50
2017,08,08,13,32,23.50
2017,08,08,13,33,23.50
2017,08,08,13,34,23.50
2017,08,08,13,35,23.60
2017,08,08,13,36,23.70
2017,08,08,13,37,23.70
2017,08,08,13,38,23.70
2017,08,08,13,39,23.60
2017,08,08,13,40,23.50
2017,08,08,13,41,23.40
2017,08,08,13,42,23.40
2017,08,08,13,43,23.40
2017,08,08,13,44,23.40
2017,08,08,13,45,23.50
2017,08,08,13,46,23.50
2017,08,08,13,47,23.50
2017,08,08,13,48,23.50
2017,08,08,13,49,23.40
2017,08,08,13,50,23.40
2017,08,08,13,51,23.40
2017,08,08,13,52,23.40
2017,08,08,13,53,23.40
2017,08,08,13,54,23.40
2017,08,08,13,55,23.40
2017,08,08,13,56,23.40
2017,08,08,13,57,23.40
2017,08,08,13,58,23.40
2017,08,08,13,59,23.40
2017,08,08,14,00,23.50
2017,08,08,14,01,23.60
2017,08,08,14,02,23.60
2017,08,08,14,03,23.50
2017,08,08,14,04,23.50
2017,08,08,14,05,23.60
2017,08,08,14,06,23.60
2017,08,08,14,07,23.70
2017,08,08,14,08,23.70
2017,08,08,14,09,23.80
2017,08,08,14,10,23.80
2017,08,08,14,11,23.80
2017,08,08,14,12,23.80
2017,08,08,14,13,23.80
2017,08,08,14,14,23.80
2017,08,08,14,15,23.90
2017,08,08,14,16,23.90
2017,08,08,14,17,23.90
2017,08,08,14,18,23.80
2017,08,08,14,19,23.80
2017,08,08,14,20,23.90
2017,08,08,14,21,23.90
2017,08,08,14,22,23.90
2017,08,08,14,23,23.90
2017,08,08,14,24,23.90
2017,08,08,14,25,23.90
2017,08,08,14,26,23.90
2017,08,08,14,27,24.00
2017,08,08,14,28,24.00
2017,08,08,14,29,24.10
2017,08,08,14,30,24.10
2017,08,08,14,31,24.20
2017,08,08,14,32,24.20
2017,08,08,14,33,24.30
2017,08,08,14,34,24.30
2017,08,08,14,35,24.30
2017,08,08,14,36,24.20
2017,08,08,14,37,24.20
2017,08,08,14,38,24.20
2017,08,08,14,39,24.10
2017,08,08,14,40,24.00
2017,08,08,14,41,24.00
2017,08,08,14,42,23.90
2017,08,08,14,43,23.90
2017,08,08,14,44,23.90
2017,08,08,14,45,24.00
2017,08,08,14,46,24.10
2017,08,08,14,47,24.10
2017,08,08,14,48,24.30
2017,08,08,14,49,24.40
2017,08,08,14,50,24.50
2017,08,08,14,51,24.60
2017,08,08,14,52,24.60
2017,08,08,14,53,24.60
2017,08,08,14,54,24.60
2017,08,08,14,55,24.60
2017,08,08,14,56,24.70
2017,08,08,14,57,24.70
2017,08,08,14,58,24.80
2017,08,08,14,59,24.90
2017,08,08,15,00,25.00
2017,08,08,15,01,25.00
2017,08,08,15,02,25.10
2017,08,08,15,03,25.20
2017,08,08,15,04,25.20
2017,08,08,15,05,25.20
2017,08,08,15,06,25.20
2017,08,08,15,07,25.30
2017,08,08,15,08,25.40
2017,08,08,15,09,25.50
2017,08,08,15,10,25.50
2017,08,08,15,11,25.60
2017,08,08,15,12,25.70
2017,08,08,15,13,25.80
2017,08,08,15,14,25.90
2017,08,08,15,15,25.90
2017,08,08,15,16,25.90
2017,08,08,15,17,25.90
2017,08,08,15,18,25.90
2017,08,08,15,19,25.90
2017,08,08,15,20,25.90
2017,08,08,15,21,25.90
2017,08,08,15,22,25.90
2017,08,08,15,23,26.00
2017,08,08,15,24,26.00
2017,08,08,15,25,26.10
2017,08,08,15,26,26.10
2017,08,08,15,27,26.10
2017,08,08,15,28,26.20
2017,08,08,15,29,26.20
2017,08,08,15,30,26.30
2017,08,08,15,31,26.30
2017,08,08,15,32,26.20
2017,08,08,15,33,26.20
2017,08,08,15,34,26.20
2017,08,08,15,35,26.20
2017,08,08,15,36,26.20
2017,08,08,15,37,26.30
2017,08,08,15,38,26.30
2017,08,08,15,39,26.30
2017,08,08,15,40,26.40
2017,08,08,15,41,26.40
2017,08,08,15,42,26.30
2017,08,08,15,43,26.30
2017,08,08,15,44,26.40
2017,08,08,15,45,26.40
2017,08,08,15,46,26.50
2017,08,08,15,47,26.40
2017,08,08,15,48,26.50
2017,08,08,15,49,26.50
2017,08,08,15,50,26.60
2017,08,08,15,51,26.60
2017,08,08,15,52,26.70
2017,08,08,15,53,26.70
2017,08,08,15,54,26.60
2017,08,08,15,55,26.60
2017,08,08,15,56,26.60
2017,08,08,15,57,26.60
2017,08,08,15,58,26.60
2017,08,08,15,59,26.60
2017,08,08,16,00,26.70
2017,08,08,16,01,26.70
2017,08,08,16,02,26.70
2017,08,08,16,03,26.70
2017,08,08,16,04,26.60
2017,08,08,16,05,26.60
2017,08,08,16,06,26.70
2017,08,08,16,07,26.70
2017,08,08,16,08,26.70
2017,08,08,16,09,26.70
2017,08,08,16,10,26.70
2017,08,08,16,11,26.70
2017,08,08,16,12,26.70
2017,08,08,16,13,26.70
2017,08,08,16,14,26.70
2017,08,08,16,15,26.70
2017,08,08,16,16,26.80
2017,08,08,16,17,26.80
2017,08,08,16,18,26.90
2017,08,08,16,19,27.00
2017,08,08,16,20,27.10
2017,08,08,16,21,27.10
2017,08,08,16,22,27.10
2017,08,08,16,23,27.10
2017,08,08,16,24,27.10
2017,08,08,16,25,27.10
2017,08,08,16,26,27.00
2017,08,08,16,27,27.00
2017,08,08,16,28,27.00
2017,08,08,16,29,27.00
2017,08,08,16,30,26.90
2017,08,08,16,31,26.90
2017,08,08,16,32,26.90
2017,08,08,16,33,27.00
2017,08,08,16,34,27.00
2017,08,08,16,35,27.10
2017,08,08,16,36,27.20
2017,08,08,16,37,27.20
2017,08,08,16,38,27.30
2017,08,08,16,39,27.30
2017,08,08,16,40,27.30
2017,08,08,16,41,27.30
2017,08,08,16,42,27.20
2017,08,08,16,43,27.10
2017,08,08,16,44,27.10
2017,08,08,16,45,27.00
2017,08,08,16,46,27.00
2017,08,08,16,47,27.00
2017,08,08,16,48,27.10
2017,08,08,16,49,27.10
2017,08,08,16,50,27.20
2017,08,08,16,51,27.20
2017,08,08,16,52,27.30
2017,08,08,16,53,27.30
2017,08,08,16,54,27.30
2017,08,08,16,55,27.30
2017,08,08,16,56,27.30
2017,08,08,16,57,27.30
2017,08,08,16,58,27.30
2017,08,08,16,59,27.30
2017,08,08,17,00,27.30
2017,08,08,17,01,27.30
2017,08,08,17,02,27.30
2017,08,08,17,03,27.40
2017,08,08,17,04,27.40
2017,08,08,17,05,27.40
2017,08,08,17,06,27.40
2017,08,08,17,07,27.40
2017,08,08,17,08,27.40
2017,08,08,17,09,27.40
2017,08,08,17,10,27.40
2017,08,08,17,11,27.40
2017,08,08,17,12,27.40
2017,08,08,17,13,27.40
2017,08,08,17,14,27.40
2017,08,08,17,15,27.30
2017,08,08,17,16,27.30
2017,08,08,17,17,27.30
2017,08,08,17,18,27.30
2017,08,08,17,19,27.30